Погода в Глядянском

Россия / Курганская область     54°54′31″N   65°05′25″E
темп.,
°C
ветер,
м/с
пор.,
м/с
влажн.,
%
обл.,
%
осадки,
мм/ч
давл.,
гПа
погр.,
м
8 марта, пн
пн823:00−9сз5993100 1.8 1002284
02:00−11сз4109260 0.1 1006321
05:00−15зсз479579 0.1 1009122
08:00−19з359412 0.0 101180
11:00−14юз468910 0.0 1012302
14:00−11ююз61084100 0.0 1012529
17:00−10ююз81491100 0.1 1010851
20:00−8ююз81593100 0.4 1009846
9 марта, вт
вт923:00−6юз81689100 0.6 1009767
02:00−7юз81688100 0.0 1009553
05:00−7ююз61490100 0.0 1010453
08:00−6ююз91594100 0.3 1009685
11:00−6ююз101590100 0.7 1008774
14:00−4юз101589100 0.1 10071034
17:00−3зюз81476100 0.3 1009971
20:00−8зюз4108324 0.0 1012154
10 марта, ср
ср1023:00−11юз238661 0.0 101321
02:00−11ююз2285100 0.0 101221
05:00−11юв2287100 0.0 101121
08:00−11юв3491100 0.0 100885
11:00−7юв3692100 0.0 1006318
14:00−5юв4695100 0.2 1003452
17:00−5юв5795100 1.1 1000503
20:00−5юв5995100 0.8 999365
11 марта, чт
чт1123:00−7зюз81285100 1.8 998469
02:00−14юз6138633 0.0 998333
05:00−17ююз6128817 0.0 999305
08:00−19ююз613900 0.0 1000339
11:00−16ююз7119243 0.0 1002588
14:00−13юз6890100 0.1 1003831
17:00−13зсз5893100 0.5 1005731
20:00−15зсз61093100 0.3 1007580
12 марта, пт
пт1223:00−17зсз5109199 0.4 1010386
02:00−20зсз389474 0.0 1013232
05:00−21зсз379587 0.0 1015156
08:00−26сз3492100 0.0 101789
11:00−22зсз478883 0.0 1019350
14:00−19зсз58820 0.0 1021624
17:00−19з378623 0.0 1022267
20:00−23зюз34900 0.0 102423